Regional Weather Roundup
Issued by NWS Kansas City/Pleasant Hill, MO

Home | Current Version | Previous Version | Graphics & Text | Print | Product List | Glossary Off
Versions: 1 2 3 4 5 6 7 8 9 10 11 12 13 14 15 16 17 18 19 20 21 22 23 24 25 26 27 28 29 30 31 32 33 34 35 36 37 38 39 40 41 42 43 44 45 46 47 48 49 50

906
ASUS43 KEAX 182310
RWREAX

WEATHER ROUNDUP FOR EASTERN KANSAS AND NORTHWEST MISSOURI
NATIONAL WEATHER SERVICE KANSAS CITY/PLEASANT HILL MO
600 PM CDT FRI AUG 18 2017

KSZ040-057-103>105-MOZ028-029-037-043-190000-
...KANSAS CITY METROPOLITAN AREA...

CITY           SKY/WX    TMP DP  RH WIND       PRES   REMARKS
K.C. INTL      PTSUNNY   84  69  60 SW9       29.89F THUNDER
K.C. DOWNTOWN  SUNNY     89  70  53 SW9       29.88S HX  94
LEES SUMMIT    SUNNY     86  69  56 SW9       29.91S HX  90
OLATHE - IXD   SUNNY     87  66  49 SW8       29.91F
OLATHE - OJC   SUNNY     86  68  54 SW7       29.91F
LAWRENCE       SUNNY     89  69  51 W7        29.88F HX  93

$$

MOZ001>008-011>017-020>025-030>033-038>040-044>046-053-054-190000-
...NORTHERN AND CENTRAL MISSOURI...

CITY           SKY/WX    TMP DP  RH WIND       PRES   REMARKS
ST. JOSEPH     CLOUDY    84  68  58 NW6       29.88S
MOSBY          PTCLDY    86  66  51 S3        29.88F
WARRENSBURG    SUNNY     84  72  65 S6        29.90S
WHITEMAN AFB   MOSUNNY   84  78  84 SW12      29.90S HX  94
CLINTON        CLOUDY    82  75  78 S6        29.92F
SEDALIA        SUNNY     84  74  71 SW13      29.93S HX  91
WARSAW         NOT AVBL
CHILLICOTHE      N/A     86  66  51 NW3       29.89S
KIRKSVILLE     CLOUDY    84  62  47 W8        29.90R

$$

MOZ041-047>049-056>058-063>065-088>090-097-190000-
...EASTERN AND SOUTHERN MISSOURI...

CITY           SKY/WX    TMP DP  RH WIND       PRES   REMARKS
ST. LOUIS INTL CLOUDY    86  61  42 SW10      29.92S
SPIRIT OF STL  CLOUDY    82  67  60 SW7       29.91S
COLUMBIA       CLOUDY    82  68  62 S9        29.93F
JEFFERSON CITY HAZE      81  69  67 S6        29.92F VSB 3/4
ROLLA          CLOUDY    78  69  73 S5        29.97F
OSAGE BEACH    MOSUNNY   80  72  76 SE3       29.95F
SPRINGFIELD    CLOUDY    83  73  72 SW9       29.96S
BRANSON        PTSUNNY   81  75  83 CALM      29.98S THUNDER
JOPLIN         SUNNY     88  73  61 NW6       29.94S HX  95
WEST PLAINS    MOSUNNY   85  64  49 SE5       29.98F

$$

IAZ060-094-KSZ022-034>040-054-083-096-NEZ052-066-093-190000-
...KANSAS...SOUTHEAST NEBRASKA AND IOWA...

CITY           SKY/WX    TMP DP  RH WIND       PRES   REMARKS
TOPEKA         SUNNY     90  67  46 W9        29.89F HX  93
MANHATTAN      SUNNY     88  68  51 NE3       29.90F HX  91
EMPORIA        SUNNY     87  66  49 VRB5      29.92F
CHANUTE        SUNNY     89  69  51 W7        29.93S HX  93
WICHITA        MOSUNNY   91  69  48 S12       29.92F HX  96
OMAHA          MOSUNNY   87  64  46 W7        29.88S
LINCOLN        SUNNY     85  64  49 VRB3      29.91F
FALLS CITY     SUNNY     85  65  51 N5        29.89F
LAMONI         PTSUNNY   85  64  49 W8        29.89S
DES MOINES     MOSUNNY   87  61  41 NW7       29.86S

$$





USA.gov is the U.S. government's official web portal to all federal, state and local government web resources and services.